Regional Weather Roundup
Issued by NWS Newport/Morehead, NC

Current Version | Previous Version | Text Only | Print | Product List | Glossary On
Versions: 1 2 3 4 5 6 7 8 9 10 11 12 13 14 15 16 17 18 19 20 21 22 23 24 25 26 27 28 29 30 31 32 33 34 35 36 37 38 39 40 41 42 43 44 45 46 47 48 49 50
000
ASUS42 KMHX 280425
RWRMHX
WEATHER ROUNDUP FOR EASTERN NORTH CAROLINA
NATIONAL WEATHER SERVICE NEWPORT/MOREHEAD CITY NC
1200 AM EDT TUE MAR 28 2017

NOTE: "FAIR" INDICATES FEW OR NO CLOUDS BELOW 12,000 FEET
WITH NO SIGNIFICANT WEATHER AND/OR OBSTRUCTIONS TO VISIBILITY

NCZ015>017-031-032-045>047-102-103-280500-
NORTH COAST

CITY           SKY/WX    TMP DP  RH WIND       PRES   REMARKS
EDENTON        MOCLDY    63  55  76 S7        30.01
ELIZABETH CITY CLEAR     62  54  74 SW12      30.01R
KITTY HAWK     NOT AVBL
MANTEO         CLEAR     61  57  87 SW9       30.02F

$$

NCZ045>047-081-094-103-104-280500-
CENTRAL COAST

CITY           SKY/WX    TMP DP  RH WIND       PRES   REMARKS
FRISCO         CLEAR     68  59  73 SW9       30.04S HAZE

$$

NCZ095-097-098-100-101-280500-
SOUTHERN COAST

CITY           SKY/WX    TMP DP  RH WIND       PRES   REMARKS
BEAUFORT       CLEAR     65  61  87 S8        30.04F
CEDAR ISLAND   NOT AVBL
JACKSONVILLE   PTCLDY    63  58  83 SW5       30.03F
PINEY ISLAND   CLEAR    N/A N/A N/A S6        30.03F
WILMINGTON     MOCLDY    63  57  81 S3        30.04S


$$

NCZ011>013-027>030-043-044-078>080-089-090>093-098-280500-
COASTAL PLAIN

CITY           SKY/WX    TMP DP  RH WIND       PRES   REMARKS
AHOSKIE          N/A     64  53  68 S6        29.99F
CLINTON        CLOUDY    64  58  78 S7        30.01F
ELIZABETHTOWN  CLOUDY    65  57  75 S7        30.02F
GOLDSBORO      CLOUDY    66  58  74 S7        30.00S
GREENVILLE     MOCLDY    63  55  77 S7        30.03F
HAVELOCK       CLEAR     61  55  81 S6        30.04F
KENANSVILLE    CLOUDY    64  55  72 CALM      30.03S
KINSTON        CLOUDY    64  55  71 S7        30.02F
NEW BERN       CLEAR     61  58  90 S6        30.04S
RICHLANDS      PTCLDY    61  56  83 S7        30.03F
ROCKY MOUNT    MOCLDY    65  56  72 S8        30.00F
WASHINGTON     MOCLDY    63  55  74 SW5       30.03S
WHITEVILLE     MOCLDY    63  57  80 S3        30.03S

$$

AMZ130-135-150-152-154-156-158-170-250-252-270-ANZ085-086-088-633-658-670-280500-
MARINE OBSERVATIONS

STATION/POSITION TIME  TEMP    WIND        PRES    WAVE   SWELL
                       AIR SEA DIR/SP/G            HT/PER HT/PER
                 (UTC) (F)     (DEG/KT/KT) (MB)    (FT/S) (FT/S)
CHESAPEAKE LIGHT NOT AVBL
64 E VA BEACH    0350   55 49  190/ 10/ 12 1016.0    4/10   3/10
DUCK             0354   63 49  200/ 13/ 16 1015.5
2 E DUCK         0330      51                N/A     3/ 8   2/18
OREGON INLET     0354   59 62  180/  9/ 10 1016.4
13E OREGON INLT  0348      53                N/A     4/ 9   3/ 9
HATTERAS CG      0354   67 62  200/  6/ 10 1016.8
DIAMOND BUOY     0350   71 74  190/ 14/ 17 1017.3    4/ 9   3/ 9
CAPE LOOKOUT     0400   66     200/  7/  8 1017.1
BEAUFORT LAB     0354   64 60  190/  5/  6 1016.4
30 SE NEW RVR IN 0408   67     200/  6/ 10 1017.5
30 SE NEW RVR IN 0413      65                N/A     4/ 9   2/11
27 SE WRIGHTSVLE 0408   69 67  190/  8/ 12 1016.5
5 SE WRIGHTSVLE  0408   63 60  220/  4/  6 1017.2
225 S CAPE HAT   0350   68 72   90/  6/ 10 1018.7    6/10   7/10
41 SE CHARLESTON 0350   72 71  180/ 10/ 12 1017.3    5/10   5/10

$$



USA.gov is the U.S. government's official web portal to all federal, state and local government web resources and services.